Simultaneous Nadir Overpasses (SNOs) Predictions

Prediction of SNOs between GOES-17 and TERRA Satellite Orbit:

Table of predicted SNOs for the next 14.0 days since TLE Epoch: 2/1/2020
Index Date Time (GOES-17) GOES-17 Lat,Lon TERRA Lat,Lon Distance(km) Time Diff (sec)
1 02/01/2020 07:31:01 0.01,-137.20 0.45,-134.99 250.73 80
2 02/01/2020 19:49:37 -0.02,-137.21 0.59,-140.16 335.65 80
3 02/03/2020 19:37:29 -0.02,-137.19 -0.01,-137.21 2.45 80
4 02/05/2020 19:28:00 -0.02,-137.17 -0.62,-134.26 329.81 80
5 02/06/2020 07:46:44 0.02,-137.15 -0.49,-139.46 262.52 80
6 02/08/2020 07:37:16 0.02,-137.12 0.18,-136.52 68.79 80
7 02/10/2020 07:25:07 0.02,-137.08 0.79,-133.57 399.51 80
8 02/10/2020 19:43:43 -0.03,-137.08 0.31,-138.73 187.84 80
9 02/12/2020 19:34:14 -0.02,-137.03 -0.30,-135.78 142.46 80
10 02/13/2020 07:52:59 0.03,-137.02 -0.81,-140.98 450.17 80
11 02/14/2020 19:22:05 -0.02,-136.99 -0.91,-132.84 472.20 80




NCC Satellite Simultaneous Nadir Overpasses (SNOs) Prediction Service
